TimeEST,TemperatureF,Dew PointF,Humidity,Sea Level PressureIn,VisibilityMPH,Wind Direction,Wind SpeedMPH,Gust SpeedMPH,PrecipitationIn,Events,Conditions,WindDirDegrees,DateUTC
12:51 AM,28.0,26.1,92,30.32,8.0,WNW,3.5,-,N/A,,Clear,300,2012-12-04 05:51:00
1:51 AM,27.0,26.1,96,30.32,8.0,West,5.8,-,N/A,,Clear,280,2012-12-04 06:51:00
2:51 AM,28.0,26.1,92,30.31,9.0,WNW,3.5,-,N/A,,Scattered Clouds,290,2012-12-04 07:51:00
3:05 AM,28.4,26.6,93,30.31,8.0,West,4.6,-,N/A,,Mostly Cloudy,280,2012-12-04 08:05:00
3:51 AM,30.0,28.0,92,30.32,9.0,WNW,3.5,-,N/A,,Mostly Cloudy,290,2012-12-04 08:51:00
4:51 AM,32.0,30.0,92,30.31,10.0,Calm,Calm,-,N/A,,Overcast,0,2012-12-04 09:51:00
5:51 AM,33.1,30.9,92,30.32,9.0,Calm,Calm,-,N/A,,Overcast,0,2012-12-04 10:51:00
6:51 AM,34.0,32.0,92,30.32,10.0,Calm,Calm,-,N/A,,Overcast,0,2012-12-04 11:51:00
7:51 AM,35.1,33.1,92,30.32,9.0,Calm,Calm,-,N/A,,Overcast,0,2012-12-04 12:51:00
8:51 AM,37.9,35.1,89,30.32,10.0,Variable,3.5,-,N/A,,Overcast,0,2012-12-04 13:51:00
9:51 AM,39.9,35.1,83,30.31,10.0,Calm,Calm,-,N/A,,Overcast,0,2012-12-04 14:51:00
10:51 AM,42.1,37.0,82,30.29,10.0,Calm,Calm,-,N/A,,Overcast,0,2012-12-04 15:51:00
11:47 AM,42.8,37.4,81,30.26,10.0,Calm,Calm,-,N/A,,Overcast,0,2012-12-04 16:47:00
11:51 AM,43.0,37.9,82,30.26,10.0,Calm,Calm,-,N/A,,Overcast,0,2012-12-04 16:51:00
12:51 PM,45.0,39.9,82,30.22,10.0,Calm,Calm,-,N/A,,Overcast,0,2012-12-04 17:51:00
1:51 PM,46.0,42.1,86,30.20,6.0,Variable,5.8,-,0.00,,Overcast,0,2012-12-04 18:51:00
2:51 PM,46.0,43.0,89,30.19,7.0,Calm,Calm,-,N/A,,Overcast,0,2012-12-04 19:51:00
3:22 PM,48.2,46.4,93,30.17,3.0,Calm,Calm,-,N/A,,Overcast,0,2012-12-04 20:22:00
3:51 PM,48.0,46.0,93,30.16,2.0,SSW,8.1,-,N/A,,Overcast,200,2012-12-04 20:51:00
4:51 PM,48.9,46.0,90,30.15,9.0,SSW,6.9,-,N/A,,Overcast,200,2012-12-04 21:51:00
5:22 PM,48.2,46.4,93,30.13,2.5,South,6.9,-,N/A,,Overcast,190,2012-12-04 22:22:00
5:51 PM,48.9,48.0,97,30.12,2.5,South,8.1,-,N/A,,Overcast,190,2012-12-04 22:51:00
6:00 PM,48.2,48.2,100,30.12,2.5,South,9.2,-,N/A,,Overcast,180,2012-12-04 23:00:00
6:51 PM,50.0,48.0,93,30.10,1.5,South,9.2,-,N/A,,Overcast,180,2012-12-04 23:51:00
7:51 PM,50.0,48.9,96,30.08,1.5,South,9.2,-,0.01,,Overcast,180,2012-12-05 00:51:00
7:53 PM,50.0,48.2,94,30.07,1.0,South,9.2,-,N/A,,Overcast,190,2012-12-05 00:53:00
8:51 PM,51.1,48.9,92,30.04,2.0,South,10.4,-,N/A,,Overcast,180,2012-12-05 01:51:00
9:51 PM,51.1,48.9,92,30.01,2.0,SSW,11.5,16.1,N/A,,Overcast,200,2012-12-05 02:51:00
9:58 PM,51.8,48.2,88,30.01,3.0,SSW,11.5,20.7,N/A,,Overcast,210,2012-12-05 02:58:00
10:51 PM,52.0,48.9,89,29.98,7.0,SSW,12.7,24.2,N/A,,Overcast,200,2012-12-05 03:51:00
11:51 PM,52.0,50.0,93,29.95,6.0,South,10.4,16.1,N/A,,Overcast,180,2012-12-05 04:51:00